STARLINK-1398 (45699 NORAD) Tracking and Keplerian Element Data

This shows tracking and keplerian element data for the satellite.

Feedback or suggestion? Click here.




ElementValue
Catalog45699
NameSTARLINK-1398
Epoch Orbit177
Epoch Day268.91668981
Epoch Year2020
RAAN338.7274
Inclination52.9966
Eccentricity0.0001313
Argument of Perigee82.3144
Mean Anonmoly11.5243
Mean Motion15.23570292
Decay Rate-0.01060578
L11 45699U 20035AU 20268.91668981 -.01060578 00000-0 -47781-1 0 9996
L22 45699 52.9966 338.7274 0001313 82.3144 11.5243 15.23570292 1773

Live tracking and technical data element details for STARLINK-1398 (NORAD 45699). STARLINK-1398 can be tracked NOW for your location showing map with azimuth and elevation plus other details from your city location.

Track the satellite on the map from your city or location and see movement details for azimuth, elevation, latitude, longitude, range, height, and movement on the map or in text.







IsCatalogInMostPopularTable: catalog: 45699, numindb: 21
Update: records affected: 1



GetName: 45699 STARLINK-1398

Hit Count: updated at: Sun, 27 Sep 2020 06:44:55 GMT